Location: Ebersheim
(48.3033°N, 7.4991°E)
Time: 10:16:09
(UTC+00:00)

STARLINK-1060 - Pass Details

Date: 27 February 2020
Orbit: 549 x 550 km, 53.0° (Epoch: 05 April)

Event Time Altitude Azimuth Distance (km) Brightness Sun altitude
Rises 19:23:05 0° 276° (W) 2,721 8.6 -22.8°
Reaches altitude 10° 19:25:24 10° 284° (WNW) 1,828 7.4 -23.1°
Maximum altitude 19:29:23 43° 357° (N) 785 4.4 -23.8°
Enters shadow 19:29:33 43° 4° (N) 788 4.4 -23.8°
